Location: Apple Hill Campground
(44.2915°N, 71.6726°W)
Time: 17:22:41
(UTC+00:00)

Envisat - Pass Details

Date: 05 October 2024
Orbit: 761 x 763 km, 98.3° (Epoch: 07 November)

Event Time Altitude Azimuth Distance (km) Brightness Sun altitude
Rises 08:10:32 0° 11° (N) 3,237 6.7 -28.7°
Reaches altitude 10° 08:12:51 10° 10° (N) 2,307 5.8 -28.4°
Enters shadow 08:16:50 54° 352° (N) 923 3.4 -27.7°
